Wind_Speed
20 15 11 6 2 7 12 2 2 4 8 0 1 2 1 1 2 2 1 3 6 5 6 2 3 4 3 5 3 1 1 2 1 2 3 5 0 3 1 3 3 2 2 2
21 16 11 6 4 14 5 2 2 4 5 1 2 4 1 1 2 2 4 3 6 6 5 3 6 3 2 5 4 5 2 2 1 3 1 2 3 5 2 5 2 2 2 1
22 17 11 6 5 11 6 2 1 1 3 0 2 1 2 1 3 1 1 3 5 7 4 8 3 2 1 5 1 8 7 4 2 1 3 3 3 5 5 3 2 6 1 4
23 17 12 7 6 13 7 2 2 1 2 3 3 2 2 3 1 2 1 2 4 4 2 3 3 1 0 2 5 3 4 3 6 6 4 4 2 4 4 2 2 3 8 8
23 19 11 8 9 15 3 3 3 2 3 3 4 3 3 2 2 2 2 1 5 4 3 2 3 4 2 1 2 1 2 3 5 5 9 7 6 6 7 5 7 10 7 2
25 18 13 10 12 12 3 1 1 1 3 3 3 2 4 3 3 3 2 3 4 2 5 6 7 6 4 1 2 4 1 3 3 2 2 2 4 8 7 5 7 6 4 3
25 18 14 11 13 13 5 4 3 2 3 2 2 4 2 0 2 4 3 4 3 5 9 10 5 4 4 7 5 4 2 3 3 2 1 1 3 5 4 4 3 7 1 3
26 19 14 12 12 14 8 8 1 1 2 4 5 4 1 3 5 4 5 3 4 6 6 2 4 4 4 6 6 6 4 2 3 2 3 3 4 5 4 2 2 5 5 5
26 19 16 13 12 13 13 10 5 1 4 3 4 3 2 2 1 3 2 2 5 4 2 2 2 2 3 3 5 7 6 6 3 4 2 3 4 6 4 1 2 7 7 4
26 22 19 16 14 13 11 7 7 1 3 3 3 2 3 1 2 2 3 4 5 4 2 2 3 2 3 3 2 3 3 4 6 5 2 3 5 4 5 1 3 7 4 7
29 25 20 17 15 14 10 9 6 4 3 3 4 2 2 1 2 2 3 2 2 3 2 2 1 1 3 3 2 2 1 1 1 3 2 3 6 4 4 2 6 7 5 4
31 26 22 19 18 14 14 6 10 10 5 4 6 7 5 6 7 3 4 3 2 2 3 2 1 1 0 2 1 3 0 1 1 1 0 1 3 3 3 4 5 6 7 6
34 28 23 20 18 15 12 16 15 8 3 3 2 4 4 5 4 4 1 2 2 3 2 2 1 2 2 1 3 5 3 3 2 3 3 4 5 4 6 6 6 6 6 8
34 29 24 21 19 15 18 12 11 3 2 4 2 3 5 4 4 4 5 4 2 1 1 1 1 1 4 2 4 2 3 5 3 3 6 1 6 6 6 4 7 5 5 7
34 30 25 23 21 19 18 18 9 6 2 3 4 5 3 2 2 2 4 1 1 1 1 2 1 2 2 1 1 2 2 3 3 2 4 4 4 4 2 6 3 6 6 6
33 29 26 23 21 21 9 3 1 4 4 3 3 3 4 4 5 5 5 3 2 1 2 2 3 2 1 2 0 5 6 6 5 3 5 4 2 5 4 3 4 5 6 6
35 31 26 23 21 9 6 3 6 9 5 2 3 3 2 3 4 2 2 2 2 1 1 2 2 1 2 2 1 5 8 8 6 7 7 2 6 3 5 5 5 5 6 7
38 32 26 21 17 12 7 8 11 6 4 2 3 2 3 3 2 2 1 2 2 2 1 1 2 2 1 2 2 6 7 9 7 8 7 4 4 2 4 3 2 1 3 2
38 32 29 16 4 3 5 9 6 2 2 3 2 4 3 3 2 2 2 1 1 2 1 2 2 3 3 1 4 6 6 6 7 9 7 2 3 2 1 2 1 1 3 2
40 22 4 3 3 20 13 4 1 1 1 1 2 1 2 1 2 2 2 1 1 2 3 1 2 2 4 3 1 5 5 6 7 6 4 5 3 5 1 1 3 2 2 2
11 3 3 11 16 3 2 2 1 1 1 1 2 3 3 2 2 3 2 1 0 1 1 1 2 2 3 2 2 3 6 7 5 4 7 5 5 5 3 0 2 1 2 2
15 20 18 8 2 1 2 2 2 2 3 1 3 2 3 2 2 2 2 2 2 2 2 1 3 2 2 1 3 1 4 7 7 9 7 9 8 5 7 3 1 2 1 1
14 5 4 4 1 2 7 7 2 2 4 3 3 2 3 2 1 2 2 3 3 1 2 3 1 3 3 1 2 4 5 7 8 9 10 9 8 6 4 4 1 1 1 2
3 6 6 4 4 4 3 3 4 2 4 7 4 2 3 2 2 2 3 3 2 1 3 3 2 4 3 2 2 3 5 5 7 9 9 7 7 7 4 3 2 1 2 1
3 3 5 3 4 4 3 5 4 2 4 4 3 3 3 1 3 1 1 3 3 4 3 1 2 3 1 2 3 4 4 4 7 10 7 7 7 7 6 5 4 3 2 1
3 4 4 4 5 3 3 5 5 1 3 2 3 3 3 1 3 4 5 4 5 3 2 2 2 1 2 3 4 6 10 10 11 11 9 8 7 8 7 5 4 4 4 3
4 3 4 2 5 5 3 4 3 6 2 3 3 4 5 3 2 3 3 4 2 2 1 1 2 3 3 4 9 12 13 11 11 10 7 6 6 6 5 6 6 7 5 4
Wind_Direction
208 214 227 240 241 153 165 259 224 163 153 164 44 218 203 296 299 315 276 272 314 322 330 34 86 54 8 245 171 232 264 324 300 98 122 122 49 290 216 261 354 26 106 18
206 207 217 218 195 173 169 231 116 188 200 289 192 145 153 277 322 7 335 315 3 332 315 24 63 77 327 231 213 355 358 270 75 355 33 126 243 230 166 261 322 316 57 350
202 203 207 206 198 187 186 115 104 139 212 46 315 359 64 333 142 262 49 303 333 356 10 53 69 84 307 317 50 354 339 307 289 359 0 145 212 216 203 253 339 340 33 109
197 200 196 197 185 172 179 195 184 120 198 172 140 141 41 314 115 186 297 206 18 5 300 62 66 100 230 302 23 321 335 292 322 320 225 312 281 205 206 181 52 351 335 69
196 195 191 189 180 169 192 154 151 192 93 138 207 141 121 335 23 268 169 269 346 318 351 67 341 353 203 218 109 51 38 283 317 270 233 200 244 254 211 200 238 274 301 77
193 188 186 188 179 166 139 116 76 325 129 169 244 93 81 70 330 154 309 354 329 302 37 327 300 295 183 182 229 204 180 283 311 255 317 204 290 223 222 190 205 204 271 29
188 185 188 187 182 179 141 164 156 218 160 226 125 134 120 295 315 289 322 295 280 35 329 289 241 213 174 159 240 284 259 274 276 294 143 213 71 17 338 217 201 216 29 45
184 180 185 183 177 177 169 155 165 252 119 96 127 152 90 250 173 225 249 296 4 341 301 257 170 158 162 197 208 216 239 277 302 343 296 178 133 39 17 34 70 248 235 206
180 176 181 169 166 165 147 143 123 301 136 71 44 142 70 4 351 153 205 54 335 282 269 281 309 59 0 147 133 181 200 240 283 320 8 36 44 25 319 259 102 4 357 298
177 177 179 166 154 154 142 124 127 324 107 46 344 68 71 6 254 296 65 356 353 262 290 53 19 20 333 6 31 196 195 222 225 258 277 68 3 8 328 9 324 324 323 295
176 173 177 169 157 148 137 116 104 33 81 77 36 24 67 162 271 358 18 258 55 340 116 49 104 30 32 289 65 318 6 351 322 338 5 62 4 289 31 315 314 355 349 326
173 171 170 164 153 139 126 106 111 80 74 94 83 76 66 39 34 326 32 82 83 21 297 40 315 87 322 307 283 206 226 58 224 47 84 149 73 66 350 320 42 4 12 48
170 166 165 162 157 145 138 128 119 106 105 110 141 75 58 62 54 20 12 105 358 88 52 1 13 280 346 1 26 331 72 354 281 9 24 39 47 80 71 21 54 20 2 17
166 164 162 160 154 143 140 132 133 94 128 111 110 117 92 73 56 58 50 82 166 227 108 6 337 295 7 8 340 332 258 345 310 7 15 327 82 47 30 30 28 50 35 47
159 158 155 153 146 142 143 136 113 108 56 110 120 127 113 96 74 71 81 76 16 51 204 169 228 305 298 267 195 250 331 5 5 66 29 325 64 97 34 28 344 6 45 46
154 155 153 148 140 136 129 85 234 163 95 105 129 127 135 102 90 99 93 76 81 76 353 6 318 298 271 283 130 10 34 31 24 329 341 301 7 79 34 105 40 42 52 49
155 155 150 142 146 122 75 113 139 155 111 88 100 137 116 117 116 90 96 103 94 111 121 247 268 259 204 282 266 27 28 356 350 19 339 284 34 54 51 85 80 75 80 65
149 146 137 135 125 100 74 83 128 123 102 68 111 89 128 179 180 126 151 157 184 192 282 247 247 264 235 242 12 350 15 343 43 5 339 337 314 30 44 35 5 327 81 58
140 132 127 113 65 82 118 115 109 76 77 119 132 145 173 197 95 100 154 290 189 134 235 250 237 211 224 93 314 348 350 332 314 320 292 309 348 50 37 358 281 286 120 68
134 128 113 104 92 127 117 47 60 12 10 36 98 358 114 183 137 134 145 212 227 231 209 216 230 229 131 150 256 281 301 312 327 328 337 352 349 358 344 67 40 13 11 350
159 112 85 120 136 97 54 121 149 131 104 167 89 59 132 334 118 137 193 166 144 247 146 239 253 201 190 141 271 326 316 306 301 285 296 296 305 308 317 148 128 348 327 13
162 118 113 122 161 89 134 86 92 210 176 134 122 132 102 107 102 125 178 158 156 230 148 214 253 190 168 58 353 7 328 320 305 300 289 296 291 290 302 297 111 101 86 40
117 93 105 172 186 147 174 171 181 190 164 159 140 118 117 110 214 120 155 170 206 99 236 234 181 131 128 127 352 338 339 325 313 295 289 283 282 280 285 299 140 133 120 80
127 150 131 177 180 232 164 137 122 113 119 127 106 108 114 111 97 145 153 207 77 258 232 231 159 150 132 55 329 319 313 313 305 302 277 264 267 263 244 249 261 277 118 89
120 97 147 163 103 57 79 95 102 78 110 110 93 53 95 89 99 199 120 154 211 228 232 172 145 145 171 275 282 279 272 283 303 300 251 245 263 269 255 244 252 237 220 187
72 74 90 121 87 109 120 101 113 105 114 81 70 107 82 140 144 159 188 188 220 246 149 172 134 196 237 263 272 275 285 288 293 292 249 244 229 236 247 235 247 262 247 222
67 60 35 72 79 115 116 124 126 142 122 120 116 102 192 123 160 221 200 209 211 163 152 143 156 218 251 261 281 286 290 287 293 290 264 244 213 207 209 238 263 256 257 257
Height
760 764 767 768 767 768 771 770 772 775 776 778 772 775 768 770 766 766 765 766 760 759 753 764 770 776 779 774 766 771 765 771 777 769 766 768 774 765 753 756 752 754 756 743
755 758 761 763 764 765 768 766 769 774 774 774 768 763 764 768 767 768 768 763 762 761 763 759 769 776 779 771 768 769 766 774 790 780 766 764 766 754 752 755 757 754 758 748
750 754 757 759 760 762 766 766 778 771 770 769 768 764 766 767 769 769 772 771 761 762 761 764 773 778 779 775 769 771 770 767 766 774 760 754 760 753 748 752 765 759 752 742
746 751 753 755 757 760 763 763 766 768 773 768 768 769 771 770 768 769 769 771 766 768 770 766 775 781 781 778 776 774 773 777 762 756 752 753 750 750 749 761 771 769 750 744
742 747 748 752 755 758 761 762 766 771 768 768 768 776 770 774 773 772 768 768 769 768 772 776 778 781 782 778 783 789 780 783 763 759 748 752 756 751 746 749 765 760 747 746
739 742 745 750 752 755 757 762 762 764 768 767 767 771 775 776 778 772 772 775 774 768 773 776 775 775 779 785 782 787 784 783 765 760 753 747 762 748 745 746 747 752 752 743
736 739 743 746 749 752 754 757 759 762 764 763 766 771 776 777 779 780 775 775 773 778 775 771 770 768 769 784 785 784 776 779 769 756 751 758 748 742 743 744 744 745 744 742
732 735 741 745 747 750 752 755 758 758 761 762 771 775 775 776 777 782 779 774 776 776 772 763 762 768 775 773 774 783 784 775 765 761 758 748 744 749 749 749 749 745 745 744
728 733 740 744 746 748 750 754 757 759 763 771 770 773 778 778 774 779 775 775 776 775 770 758 758 762 751 761 768 778 782 781 777 771 756 751 754 752 749 747 758 751 749 746
724 732 739 743 745 748 750 755 758 759 768 777 776 777 778 781 780 779 777 781 778 772 767 764 766 762 756 763 761 768 768 769 773 761 758 756 756 753 749 752 765 752 749 748
723 730 738 742 745 747 749 757 759 760 769 780 780 781 780 783 783 784 785 782 783 780 768 766 766 766 768 767 757 758 760 769 764 756 756 770 759 754 758 764 755 752 749 745
722 729 737 741 745 747 750 757 760 761 767 780 783 785 786 787 789 789 787 790 793 792 787 776 774 771 767 765 767 756 766 767 772 766 765 759 757 761 761 759 758 759 754 752
720 728 736 741 745 747 750 756 760 764 771 782 784 786 789 789 790 790 790 793 794 792 796 794 789 781 773 768 772 771 762 765 769 762 760 760 760 759 762 763 762 762 760 758
720 729 736 742 746 748 752 755 760 762 764 774 789 788 790 791 791 792 792 793 794 794 795 793 792 789 781 777 780 781 773 768 761 764 763 760 764 765 764 765 762 764 765 763
720 729 738 743 745 749 753 758 761 763 766 773 786 788 791 792 793 793 794 794 795 795 796 792 790 786 784 779 781 779 766 771 770 770 769 769 768 768 768 767 769 767 766 767
722 733 740 743 747 752 754 763 764 765 765 773 786 790 790 791 793 794 796 797 797 798 799 797 792 786 786 782 774 774 772 771 771 773 770 767 765 766 768 769 770 770 770 770
726 736 742 746 750 752 756 760 763 765 766 769 787 789 790 791 793 795 797 798 799 799 799 801 795 787 785 782 775 780 781 779 776 775 773 768 769 768 768 769 770 770 771 772
729 737 743 749 753 758 760 763 764 766 767 770 783 789 791 791 791 795 796 796 797 797 795 792 791 782 783 779 787 783 783 781 777 779 778 777 774 772 772 771 771 771 771 772
730 739 746 753 756 760 763 765 767 768 771 774 777 786 793 789 791 792 796 795 796 796 795 789 785 779 784 785 788 787 786 785 784 781 774 771 772 773 774 773 773 773 773 774
732 742 748 756 760 761 764 768 770 770 771 772 777 778 790 789 788 790 795 794 791 790 786 783 789 775 786 786 787 787 787 785 784 782 776 776 775 773 771 773 774 775 775 775
731 739 752 759 761 764 766 769 769 772 774 772 776 781 789 789 793 792 792 792 790 791 785 784 783 775 784 784 785 785 785 785 784 783 782 779 779 778 773 770 773 774 775 775
722 731 748 757 762 765 764 767 772 771 766 776 780 784 784 789 789 789 795 791 791 790 784 784 785 785 782 783 782 783 784 784 783 782 781 780 778 775 776 773 770 771 772 773
721 731 744 749 761 758 751 761 768 770 769 774 780 788 787 790 789 790 792 791 787 780 786 776 779 781 781 782 782 781 781 781 780 778 778 776 776 775 773 773 772 769 770 771
715 724 738 733 753 744 740 742 751 761 764 769 776 785 789 787 795 792 794 784 788 789 776 764 783 779 780 781 781 781 780 779 778 776 773 774 773 773 772 771 772 770 767 768
713 712 721 739 745 749 751 753 756 761 765 770 779 786 787 792 800 792 791 788 780 777 777 782 780 778 779 780 780 780 778 776 775 773 771 770 771 772 771 770 769 769 768 767
716 725 736 739 743 753 752 756 760 762 766 771 776 788 798 798 795 792 788 779 781 783 780 779 779 780 780 779 777 775 774 773 771 770 767 767 766 768 769 770 768 768 767 766
723 735 732 734 735 742 748 752 759 762 765 776 780 793 796 791 795 790 789 776 780 778 778 777 777 778 777 776 774 772 771 769 768 766 766 766 766 765 767 769 767 766 765 764